Location: Champignolles
(47.0543°N, 4.5663°E)
Time: 13:08:48
(UTC+00:00)

Cosmos 1515 Rocket - Pass Details

Date: 30 November 2020
Orbit: 605 x 631 km, 82.5° (Epoch: 26 January)

Event Time Altitude Azimuth Distance (km) Brightness Sun altitude
Rises 16:57:17 0° 160° (SSE) 2,869 7.0 -10.4°
Reaches altitude 10° 16:59:42 10° 149° (SSE) 1,974 6.0 -10.8°
Maximum altitude 17:03:27 29° 89° (E) 1,147 4.4 -11.4°
Drops below altitude 10° 17:07:16 10° 30° (NNE) 2,003 5.7 -12.0°
Enters shadow 17:07:30 - 28° (NNE) 2,083 5.8 -12.0°
